Location: Maccacari
(45.1333°N, 11.1333°E)
Time: 18:20:51
(UTC+00:00)

USA 234 - Pass Details

Date: 17 January 2021
Orbit: 1100 x 1107 km, 123.0° (Epoch: 01 March)

Event Time Altitude Azimuth Distance (km) Brightness Sun altitude
Exits shadow 19:06:24 65° 355° (N) 1,200 3.3 -32.0°
Drops below altitude 10° 19:12:13 10° 311° (NW) 2,967 6.1 -33.0°
Sets 19:14:43 0° 310° (NW) 3,928 6.9 -33.5°
